User: anonymous   Login
Location: Central Coast
(33.3208°S, 151.2336°E)
Time: 15:54:47
(UTC+10:00)
Language:

N. Korean satellite - Orbit

View from above orbital plane
View from above orbital plane
View from above satellite
View from above satellite

Ground track
Ground track

The orbit data is extracted from the following two-line orbital elements,

1 39026U 12072A   18110.47651297 +.00001448 +00000-0 +56903-4 0  9998
2 39026 097.2128 122.8066 0039845 165.4001 194.8399 15.26557141296795
Epoch (UTC): 20 April 2018 11:26:10
Eccentricity: 0.0039845
inclination: 97.2128°
perigee height: 459 km
apogee height: 513 km
right ascension of ascending node: 122.8066°
argument of perigee: 165.4001°
revolutions per day: 15.26557141
mean anomaly at epoch: 194.8399°
orbit number at epoch: 29679

The dashed part of the orbit path shows where the satellite is in the earth's shadow,  

DLR